Weather History for West Point, VA

Change the Weather History Date:

Thursday, March 28, 2013

  Actual Average (KRIC) Record (KRIC)
Temperature  
Mean Temperature 41 °F 52 °F  
Max Temperature 52 °F 64 °F 91 °F (1907)
Min Temperature 30 °F 41 °F 23 °F (2001)
Degree Days  
Heating Degree Days 24 13  
Month to date heating degree days 478  
Since 1 July heating degree days 3414  
Cooling Degree Days 0 0  
Month to date cooling degree days 0  
Year to date cooling degree days 0  
Moisture  
Dew Point 29 °F    
Average Humidity 58    
Maximum Humidity 86    
Minimum Humidity 40    
Precipitation  
Precipitation 0.00 in 0.13 in 2.04 in (1942)
Month to date precipitation 3.64  
Year to date precipitation 9.44  
Snow  
Snow 0.00 in 0.00 in 0.60 in (1947)
Month to date snowfall 0.6  
Since 1 July snowfall 10.2  
Snow Depth -    
Sea Level Pressure  
Sea Level Pressure 30.17 in    
Wind  
Wind Speed 6 mph (WNW)    
Max Wind Speed 14 mph    
Max Gust Speed 22 mph    
Visibility 10 miles    
Events      
T = Trace of Precipitation, MM = Missing Value Source: NWS Daily Summary

Daily Weather History Graph

Daily Weather History Graph

Search for Another Location

Airport:

Trip Planner

Search our weather history database for the weather conditions in past years. The results will help you decide how hot, cold, wet, or windy it might be!

Date:

Astronomy

Mar. 28, 2013 Rise Set
Actual Time 6:58 AM EDT 7:26 PM EDT
Civil Twilight 6:31 AM EDT 7:52 PM EDT
Nautical Twilight 6:01 AM EDT 8:23 PM EDT
Astronomical Twilight 5:29 AM EDT 8:55 PM EDT
Moon 9:12 PM EDT (3/28) 7:27 AM EDT (3/28)
Length of Visible Light 13h 20m
Length of Day
12h 28m
Full, 98% of the Moon is Illuminated
Mar 28
Full
Apr 3
Last Quarter
Apr 10
New
Apr 18
First Quarter
Apr 25
Full

Hourly Weather History & Observations

Time (EDT) Temp. Windchill Dew Point Humidity Pressure Visibility Wind Dir Wind Speed Gust Speed Precip Events Conditions
12:15 AM 39.7 °F 35.6 °F 28.4 °F 64% 30.16 in 10.0 mi West 5.8 mph - N/A   Clear
12:35 AM 39.4 °F 35.2 °F 28.4 °F 65% 30.16 in 10.0 mi West 5.8 mph - N/A   Clear
12:55 AM 40.1 °F 34.1 °F 28.4 °F 63% 30.16 in 10.0 mi West 9.2 mph - N/A   Clear
1:15 AM 40.6 °F 35.4 °F 27.7 °F 60% 30.16 in 10.0 mi West 8.1 mph - N/A   Clear
1:35 AM 40.3 °F 34.4 °F 27.9 °F 61% 30.16 in 10.0 mi West 9.2 mph - N/A   Clear
1:55 AM 39.4 °F 33.8 °F 28.6 °F 65% 30.16 in 10.0 mi West 8.1 mph - N/A   Clear
2:15 AM 39.7 °F 34.3 °F 28.4 °F 64% 30.16 in 10.0 mi West 8.1 mph - N/A   Clear
2:35 AM 39.7 °F 33.7 °F 28.4 °F 64% 30.15 in 10.0 mi West 9.2 mph - N/A   Clear
2:55 AM 39.4 °F 34.5 °F 29.3 °F 67% 30.15 in 10.0 mi West 6.9 mph - N/A   Clear
3:15 AM 39.2 °F 35.9 °F 29.1 °F 67% 30.15 in 10.0 mi West 4.6 mph - N/A   Clear
3:35 AM 38.5 °F 36.1 °F 29.3 °F 70% 30.15 in 10.0 mi WNW 3.5 mph - N/A   Mostly Cloudy
3:55 AM 38.3 °F 35.9 °F 28.9 °F 69% 30.15 in 10.0 mi WNW 3.5 mph - N/A   Scattered Clouds
4:15 AM 37.8 °F 35.3 °F 29.1 °F 71% 30.15 in 10.0 mi West 3.5 mph - N/A   Scattered Clouds
4:35 AM 36.7 °F 32.9 °F 28.4 °F 72% 30.15 in 10.0 mi West 4.6 mph - N/A   Mostly Cloudy
4:55 AM 36.1 °F 33.5 °F 28.8 °F 75% 30.14 in 10.0 mi West 3.5 mph - N/A   Scattered Clouds
5:15 AM 34.2 °F - 28.2 °F 79% 30.14 in 10.0 mi Calm Calm - N/A   Clear
5:35 AM 34.5 °F - 28.2 °F 78% 30.14 in 10.0 mi Calm Calm - N/A   Clear
5:55 AM 35.8 °F 33.0 °F 28.2 °F 74% 30.14 in 10.0 mi West 3.5 mph - N/A   Clear
6:15 AM 33.1 °F - 27.5 °F 80% 30.15 in 10.0 mi Calm Calm - N/A   Scattered Clouds
6:35 AM 33.4 °F - 27.0 °F 77% 30.15 in 10.0 mi Calm Calm - N/A   Mostly Cloudy
6:55 AM 30.4 °F - 26.8 °F 86% 30.15 in 10.0 mi Calm Calm - N/A   Mostly Cloudy
7:15 AM 34.5 °F 31.6 °F 29.1 °F 81% 30.15 in 10.0 mi WNW 3.5 mph - N/A   Mostly Cloudy
7:35 AM 34.3 °F - 29.5 °F 82% 30.16 in 10.0 mi Calm Calm - N/A   Overcast
7:55 AM 37.6 °F 34.0 °F 30.6 °F 76% 30.16 in 10.0 mi West 4.6 mph - N/A   Overcast
8:15 AM 38.3 °F 33.2 °F 30.2 °F 73% 30.16 in 10.0 mi West 6.9 mph - N/A   Scattered Clouds
8:35 AM 40.3 °F 36.3 °F 30.6 °F 68% 30.16 in 10.0 mi West 5.8 mph - N/A   Clear
8:55 AM 42.3 °F 35.9 °F 30.2 °F 62% 30.17 in 10.0 mi West 11.5 mph 17.3 mph N/A   Scattered Clouds
9:15 AM 43.0 °F 37.7 °F 29.3 °F 59% 30.17 in 10.0 mi West 9.2 mph - N/A   Scattered Clouds
9:35 AM 45.0 °F 40.6 °F 30.7 °F 57% 30.17 in 10.0 mi West 8.1 mph - N/A   Clear
9:55 AM 47.3 °F - 30.4 °F 52% 30.17 in 10.0 mi West 10.4 mph 16.1 mph N/A   Clear
10:15 AM 48.2 °F - 29.1 °F 48% 30.16 in 10.0 mi NW 11.5 mph 18.4 mph N/A   Clear
10:35 AM 48.0 °F - 28.9 °F 48% 30.17 in 10.0 mi WNW 9.2 mph 19.6 mph N/A   Mostly Cloudy
10:55 AM 49.8 °F - 29.5 °F 46% 30.17 in 10.0 mi NNW 8.1 mph 19.6 mph N/A   Overcast
11:15 AM 50.0 °F - 29.1 °F 45% 30.17 in 10.0 mi NW 11.5 mph 20.7 mph N/A   Mostly Cloudy
11:35 AM 49.3 °F - 29.8 °F 47% 30.17 in 10.0 mi NW 8.1 mph - N/A   Mostly Cloudy
11:55 AM 51.1 °F - 29.5 °F 43% 30.16 in 10.0 mi NW 10.4 mph - N/A   Scattered Clouds
12:15 PM 51.6 °F - 28.9 °F 42% 30.16 in 10.0 mi NNW 11.5 mph 21.9 mph N/A   Scattered Clouds
12:35 PM 52.0 °F - 28.9 °F 41% 30.16 in 10.0 mi WNW 10.4 mph 20.7 mph N/A   Scattered Clouds
12:55 PM 51.6 °F - 27.9 °F 40% 30.15 in 10.0 mi NW 9.2 mph 19.6 mph N/A   Mostly Cloudy
1:15 PM 50.9 °F - 27.9 °F 41% 30.15 in 10.0 mi WNW 9.2 mph 19.6 mph N/A   Overcast
1:35 PM 50.7 °F - 28.2 °F 42% 30.14 in 10.0 mi WNW 9.2 mph 16.1 mph N/A   Overcast
1:55 PM 51.3 °F - 28.8 °F 42% 30.14 in 10.0 mi NW 10.4 mph 18.4 mph N/A   Overcast
2:15 PM 50.4 °F - 28.4 °F 43% 30.14 in 10.0 mi NW 12.7 mph 18.4 mph N/A   Overcast
2:35 PM 50.9 °F - 28.6 °F 42% 30.14 in 10.0 mi WNW 9.2 mph 17.3 mph N/A   Overcast
2:55 PM 49.3 °F - 28.9 °F 45% 30.14 in 10.0 mi WNW 13.8 mph 20.7 mph N/A   Overcast
3:15 PM 50.4 °F - 28.9 °F 44% 30.14 in 10.0 mi North 8.1 mph - N/A   Overcast
3:35 PM 49.6 °F - 29.3 °F 46% 30.14 in 10.0 mi NNW 6.9 mph - N/A   Overcast
3:55 PM 50.2 °F - 29.7 °F 45% 30.14 in 10.0 mi NW 3.5 mph - N/A   Overcast
4:15 PM 51.3 °F - 28.9 °F 42% 30.14 in 10.0 mi NW 8.1 mph 18.4 mph N/A   Overcast
4:35 PM 51.4 °F - 28.6 °F 41% 30.14 in 10.0 mi NW 8.1 mph 20.7 mph N/A   Overcast
4:55 PM 50.7 °F - 28.4 °F 42% 30.14 in 10.0 mi NW 8.1 mph 17.3 mph N/A   Overcast
5:15 PM 50.0 °F - 29.8 °F 46% 30.16 in 10.0 mi NW 12.7 mph 19.6 mph N/A   Overcast
5:35 PM 49.3 °F - 30.6 °F 49% 30.16 in 10.0 mi NW 10.4 mph 19.6 mph N/A   Overcast
5:55 PM 50.4 °F - 31.1 °F 48% 30.16 in 10.0 mi NW 8.1 mph 16.1 mph N/A   Overcast
6:15 PM 50.4 °F - 29.3 °F 44% 30.17 in 10.0 mi NW 6.9 mph 18.4 mph N/A   Overcast
6:35 PM 50.0 °F - 29.8 °F 46% 30.18 in 10.0 mi NW 9.2 mph - N/A   Overcast
6:55 PM 49.1 °F - 30.2 °F 48% 30.19 in 10.0 mi NNW 5.8 mph - N/A   Overcast
7:15 PM 48.2 °F - 30.6 °F 51% 30.20 in 10.0 mi NNW 4.6 mph - N/A   Overcast
7:35 PM 47.7 °F - 31.1 °F 53% 30.21 in 10.0 mi NW 5.8 mph - N/A   Overcast
7:55 PM 46.0 °F 44.8 °F 31.5 °F 57% 30.21 in 10.0 mi NW 3.5 mph - N/A   Mostly Cloudy
8:15 PM 46.2 °F 44.1 °F 31.5 °F 56% 30.22 in 10.0 mi NW 4.6 mph - N/A   Mostly Cloudy
8:35 PM 45.1 °F 43.7 °F 31.1 °F 58% 30.22 in 10.0 mi NW 3.5 mph - N/A   Mostly Cloudy
8:55 PM 45.3 °F - 31.1 °F 58% 30.23 in 10.0 mi Calm Calm - N/A   Mostly Cloudy
9:15 PM 44.6 °F 43.1 °F 30.9 °F 59% 30.23 in 10.0 mi NW 3.5 mph - N/A   Scattered Clouds
9:35 PM 44.1 °F 42.5 °F 30.9 °F 60% 30.24 in 10.0 mi NW 3.5 mph - N/A   Scattered Clouds
9:55 PM 43.3 °F 41.7 °F 31.1 °F 62% 30.25 in 10.0 mi NNW 3.5 mph - N/A   Scattered Clouds
10:15 PM 42.1 °F - 31.5 °F 66% 30.25 in 10.0 mi Calm Calm - N/A   Scattered Clouds
10:35 PM 41.7 °F 39.8 °F 31.5 °F 67% 30.25 in 10.0 mi WNW 3.5 mph - N/A   Clear
10:55 PM 41.4 °F 39.4 °F 30.7 °F 66% 30.26 in 10.0 mi NW 3.5 mph - N/A   Clear
11:15 PM 40.6 °F 38.6 °F 31.1 °F 69% 30.26 in 10.0 mi NW 3.5 mph - N/A   Clear
11:35 PM 40.6 °F 36.7 °F 30.6 °F 67% 30.26 in 10.0 mi WNW 5.8 mph - N/A   Clear
11:55 PM 39.4 °F - 31.1 °F 72% 30.26 in 10.0 mi Calm Calm - N/A   Clear